Weather History for Istanbul, Turkey

Change the Weather History Date:

Friday, February 3, 2012

  Actual Average Record
Temperature  
Mean Temperature 38 °F -  
Max Temperature 44 °F 47 °F 63 °F (2013)
Min Temperature 31 °F 37 °F 24 °F (1997)
Degree Days  
Heating Degree Days 28    
Moisture  
Dew Point 28 °F    
Average Humidity 66    
Maximum Humidity 81    
Minimum Humidity 45    
Precipitation  
Precipitation 0.03 in - - ()
Sea Level Pressure  
Sea Level Pressure 30.32 in    
Wind  
Wind Speed 7 mph ()    
Max Wind Speed 12 mph    
Max Gust Speed -    
Visibility 5.8 miles    
Events Rain    
Averages and records for this station are not official NWS values.
T = Trace of Precipitation, MM = Missing Value Source: Averaged Metar Reports

Daily Weather History Graph

Daily Weather History Graph

Search for Another Location

Airport:

Trip Planner

Search our weather history database for the weather conditions in past years. The results will help you decide how hot, cold, wet, or windy it might be!

Date:

Astronomy

Feb. 03, 2012 Rise Set
Actual Time 7:14 AM EET 5:23 PM EET
Civil Twilight 6:45 AM EET 5:52 PM EET
Nautical Twilight 6:12 AM EET 6:25 PM EET
Astronomical Twilight 5:40 AM EET 6:57 PM EET
Moon 1:06 PM EET (2/3) 3:33 AM EET (2/3)
Length of Visible Light 11h 07m
Length of Day
10h 09m
Waxing Gibbous, 79% of the Moon is Illuminated
Feb 3
Waxing Gibbous
Feb 7
Full
Feb 14
Last Quarter
Feb 22
New
Mar 1
First Quarter

Hourly Weather History & Observations

Time (EET) Temp. Windchill Dew Point Humidity Pressure Visibility Wind Dir Wind Speed Gust Speed Precip Events Conditions
12:20 AM 33.8 °F 27.7 °F 24.8 °F 70% 30.30 in 6.2 mi ENE 6.9 mph - N/A   Mostly Cloudy
12:50 AM 33.8 °F 29.6 °F 26.6 °F 75% 30.30 in 6.2 mi ENE 4.6 mph - N/A   Mostly Cloudy
1:20 AM 33.8 °F 27.7 °F 23.0 °F 65% 30.30 in 6.2 mi ENE 6.9 mph - N/A   Mostly Cloudy
1:50 AM 33.8 °F 28.6 °F 24.8 °F 70% 30.33 in 6.2 mi Variable 5.8 mph - N/A   Mostly Cloudy
2:00 AM 35 °F - 23 °F 51% 30.35 in 6 mi NE 5.8 mph - -   Partly Cloudy
2:20 AM 33.8 °F 27.7 °F 24.8 °F 70% 30.33 in 6.2 mi NNE 6.9 mph - N/A   Mostly Cloudy
2:50 AM 33.8 °F 27.7 °F 24.8 °F 70% 30.33 in 6.2 mi NE 6.9 mph - N/A   Mostly Cloudy
3:20 AM 33.8 °F 26.4 °F 24.8 °F 70% 30.33 in 6.2 mi NE 9.2 mph - N/A   Mostly Cloudy
3:50 AM 33.8 °F 26.4 °F 24.8 °F 70% 30.30 in 6.2 mi NE 9.2 mph - N/A   Mostly Cloudy
4:20 AM 33.8 °F 26.4 °F 24.8 °F 70% 30.30 in 6.2 mi NE 9.2 mph - N/A   Mostly Cloudy
4:50 AM 33.8 °F 25.8 °F 24.8 °F 70% 30.30 in 6.2 mi NE 10.4 mph - N/A   Mostly Cloudy
5:20 AM 33.8 °F 25.3 °F 24.8 °F 70% 30.30 in 6.2 mi ENE 11.5 mph - N/A   Mostly Cloudy
5:50 AM 33.8 °F 25.3 °F 23.0 °F 65% 30.33 in 6.2 mi ENE 11.5 mph - N/A   Mostly Cloudy
6:20 AM 33.8 °F 25.8 °F 23.0 °F 65% 30.33 in 6.2 mi ENE 10.4 mph - N/A   Mostly Cloudy
6:50 AM 33.8 °F 25.8 °F 24.8 °F 70% 30.33 in 6.2 mi ENE 10.4 mph - N/A   Mostly Cloudy
7:20 AM 35.6 °F 28.6 °F 24.8 °F 65% 30.33 in 6.2 mi ENE 9.2 mph - N/A   Mostly Cloudy
7:50 AM 35.6 °F 27.5 °F 24.8 °F 65% 30.33 in 6.2 mi NE 11.5 mph - N/A   Mostly Cloudy
8:00 AM 35 °F - 25 °F 55% 30.35 in 6 mi NE 11.5 mph - -   Partly Cloudy
8:20 AM 35.6 °F 27.5 °F 24.8 °F 65% 30.33 in 6.2 mi ENE 11.5 mph - N/A   Mostly Cloudy
8:50 AM 35.6 °F 28.0 °F 26.6 °F 70% 30.33 in 6.2 mi ENE 10.4 mph - N/A   Mostly Cloudy
9:20 AM 37.4 °F 30.8 °F 26.6 °F 65% 30.33 in 6.2 mi ENE 9.2 mph - N/A   Mostly Cloudy
9:50 AM 37.4 °F 30.3 °F 26.6 °F 65% 30.33 in 6.2 mi ENE 10.4 mph - N/A   Mostly Cloudy
10:20 AM 37.4 °F 30.8 °F 24.8 °F 60% 30.33 in 6.2 mi ENE 9.2 mph - N/A   Mostly Cloudy
10:50 AM 37.4 °F 31.4 °F 26.6 °F 65% 30.33 in 6.2 mi ENE 8.1 mph - N/A   Mostly Cloudy
11:20 AM 39.2 °F 33.0 °F 26.6 °F 61% 30.33 in 6.2 mi East 9.2 mph - N/A   Mostly Cloudy
11:50 AM 41.0 °F 36.4 °F 26.6 °F 57% 30.33 in 6.2 mi East 6.9 mph - N/A   Mostly Cloudy
12:20 PM 41.0 °F 35.8 °F 26.6 °F 57% 30.30 in 6.2 mi East 8.1 mph - N/A   Mostly Cloudy
12:50 PM 39.2 °F 34.2 °F 26.6 °F 61% 30.30 in 6.2 mi ENE 6.9 mph - N/A   Mostly Cloudy
1:20 PM 41.0 °F 36.4 °F 26.6 °F 57% 30.30 in 6.2 mi NE 6.9 mph - N/A   Mostly Cloudy
1:50 PM 42.8 °F 40.1 °F 28.4 °F 57% 30.30 in 6.2 mi East 4.6 mph - N/A   Mostly Cloudy
2:00 PM 42 °F - 28 °F 45% 30.31 in 6 mi East 4.6 mph - -   Partly Cloudy
2:20 PM 42.8 °F 40.1 °F 26.6 °F 53% 30.30 in 6.2 mi Variable 4.6 mph - N/A   Mostly Cloudy
2:50 PM 41.0 °F 39.0 °F 28.4 °F 61% 30.30 in 6.2 mi NE 3.5 mph - N/A   Mostly Cloudy
3:20 PM 42.8 °F - 28.4 °F 57% 30.30 in 6.2 mi Variable 2.3 mph - N/A   Mostly Cloudy
3:50 PM 39.2 °F 35.0 °F 28.4 °F 65% 30.30 in 6.2 mi North 5.8 mph - N/A   Mostly Cloudy
4:20 PM 39.2 °F - 30.2 °F 70% 30.30 in 3.7 mi Variable 2.3 mph - N/A Rain Light Rain Showers
4:50 PM 39.2 °F 34.2 °F 30.2 °F 70% 30.30 in 3.7 mi North 6.9 mph - N/A Rain Light Rain Showers
5:20 PM 39.2 °F 35.9 °F 32.0 °F 75% - 3.7 mi NNE 4.6 mph - N/A Rain Light Rain Showers
5:50 PM 39.2 °F 35.0 °F 32.0 °F 75% 30.30 in - North 5.8 mph - N/A Rain Light Rain Showers
6:20 PM 41.0 °F 38.0 °F 33.8 °F 76% 30.30 in - NNE 4.6 mph - N/A Rain Light Rain Showers
6:50 PM 41.0 °F 38.0 °F 32.0 °F 70% 30.30 in - NNE 4.6 mph - N/A Rain Light Rain Showers
7:20 PM 42.8 °F 40.1 °F 32.0 °F 66% 30.30 in 2.2 mi Variable 4.6 mph - N/A Rain Light Rain Showers
7:50 PM 41.0 °F 39.0 °F 32.0 °F 70% 30.30 in 2.5 mi North 3.5 mph - N/A Rain Light Rain Showers
8:00 PM 40 °F - 32 °F 63% 30.34 in 12 mi North 3.5 mph - - Rain Light Rain Showers
8:20 PM 39.2 °F 34.2 °F 32.0 °F 75% 30.30 in - North 6.9 mph - N/A   Mostly Cloudy
8:50 PM 37.4 °F 33.8 °F 32.0 °F 81% 30.33 in - North 4.6 mph - N/A   Mostly Cloudy
9:20 PM 41.0 °F - 33.8 °F 76% 30.33 in - Variable 2.3 mph - N/A   Mostly Cloudy
9:50 PM 41.0 °F - 33.8 °F 76% 30.30 in - Variable 2.3 mph - N/A   Mostly Cloudy
10:20 PM 42.8 °F 41.1 °F 33.8 °F 70% 30.30 in - Variable 3.5 mph - N/A   Mostly Cloudy
10:50 PM 44.6 °F 42.2 °F 33.8 °F 66% 30.33 in - East 4.6 mph - N/A   Mostly Cloudy
11:20 PM 42.8 °F 40.1 °F 33.8 °F 70% 30.33 in 2.5 mi ENE 4.6 mph - N/A   Mostly Cloudy
11:50 PM 44.6 °F 41.4 °F 33.8 °F 66% 30.30 in 2.5 mi ENE 5.8 mph - N/A   Mostly Cloudy